Theta_e
320 321 321 321 323 325 324 324 323 324 325 324 323 322 324 326 322 320 327 330 326 327 330 330 330 330 331 330 330 330 333 333 334 338 339 335 335 342 344 339 333 334 336 336 338 337 338 343 347 349 350 349 350 349 349 350 351 351 352 353 351 350 348 347 345 344 343 343 342 342 342 342 342 342 342 342 344 345 345 344 342 344 344 344 345 345 346
319 319 320 321 322 322 323 324 324 324 325 324 324 325 326 326 325 325 329 330 328 330 330 330 330 330 329 329 329 330 331 331 330 334 336 334 330 334 341 340 333 330 330 330 331 333 335 338 342 346 348 348 349 348 348 350 350 350 351 352 351 349 348 347 345 345 345 345 344 343 342 342 341 341 343 343 343 344 345 345 344 344 345 345 346 347 347
320 319 319 320 321 321 321 322 323 323 324 324 324 325 326 326 326 328 329 328 329 330 331 331 330 330 330 331 330 329 330 329 329 329 330 332 333 333 339 339 331 327 328 328 328 329 330 333 337 342 344 345 346 348 350 350 350 349 351 351 351 348 347 347 347 347 345 344 344 343 342 342 342 342 343 343 344 345 345 345 345 345 345 346 346 347 347
319 319 319 319 319 320 319 319 322 322 322 323 323 324 326 325 325 326 326 324 327 329 330 330 330 330 329 329 329 329 329 328 329 330 331 333 334 333 336 337 330 326 328 328 327 327 328 332 333 335 339 343 345 347 349 350 350 350 350 351 350 347 348 348 347 345 344 344 344 343 343 343 343 343 343 343 344 344 345 346 346 346 346 346 346 347 348
318 318 318 318 318 318 318 320 322 323 323 324 324 325 326 326 325 325 324 324 327 330 329 329 329 329 329 329 329 329 330 330 330 331 331 333 331 330 335 339 333 327 328 329 328 327 327 329 332 333 336 340 342 342 347 351 352 351 351 351 349 348 348 349 347 345 344 344 344 343 344 344 344 344 344 344 344 344 346 346 348 348 348 348 348 348 349
318 318 317 318 318 319 320 323 324 324 324 324 324 324 326 327 327 326 326 327 329 330 329 329 330 330 330 330 329 330 330 333 333 333 333 334 334 333 335 337 334 328 327 328 328 327 326 328 333 336 335 336 339 342 345 348 349 349 351 351 350 348 347 347 346 345 345 344 344 344 345 345 346 345 345 344 345 345 347 347 348 350 351 353 352 349 350
317 318 317 319 319 319 322 326 327 327 327 328 329 329 330 328 329 329 329 329 330 330 331 331 331 330 330 330 333 334 333 334 337 337 333 332 335 338 337 337 334 330 327 327 326 327 328 328 332 335 334 337 343 346 347 347 346 346 348 350 350 348 345 344 344 344 344 344 344 345 346 346 346 345 345 345 345 346 347 348 348 349 351 353 354 351 354
316 317 317 319 320 321 321 325 328 328 330 331 329 327 328 331 334 335 335 334 334 334 334 334 334 334 333 332 334 336 335 335 339 337 334 335 340 343 343 339 335 330 327 327 327 327 329 329 330 334 337 342 346 348 349 349 347 345 346 348 348 347 345 342 342 342 343 343 343 344 345 345 345 345 345 345 345 346 347 348 348 349 349 350 352 355 357
317 317 317 318 320 319 320 325 330 330 331 332 331 327 330 337 339 339 340 341 340 339 340 342 344 342 338 335 332 332 331 334 339 339 338 341 344 343 339 335 333 332 330 330 329 330 332 331 331 335 342 346 346 348 350 351 350 347 344 344 345 345 343 341 341 341 342 342 343 343 344 344 344 344 345 344 345 346 347 348 349 349 350 350 351 355 357
316 316 316 318 318 318 320 324 330 332 330 332 333 331 333 339 340 339 341 342 342 343 345 347 348 346 340 333 331 335 336 339 346 348 345 343 341 338 336 334 336 337 335 334 334 334 334 333 334 337 343 346 347 347 349 351 352 349 344 341 342 342 341 341 341 343 343 342 343 343 343 344 343 344 345 345 346 346 347 348 349 350 353 354 352 353 355
314 315 316 317 317 320 324 327 329 330 329 331 332 328 329 337 341 339 340 341 341 344 344 345 347 345 337 330 337 348 351 352 352 352 352 349 344 341 340 340 340 340 339 337 338 339 339 337 338 339 342 345 347 348 347 350 353 350 343 339 341 341 342 344 344 343 344 344 343 344 343 344 344 344 345 346 346 347 347 348 350 353 356 358 357 356 356
314 315 316 316 316 319 325 328 328 329 329 331 330 326 328 337 340 339 340 340 341 343 344 343 345 345 341 340 347 349 348 350 351 350 350 348 345 343 345 345 343 341 342 343 345 350 350 343 341 342 341 342 345 347 347 349 351 350 343 341 343 343 343 343 344 343 344 343 343 344 344 344 345 345 346 347 348 348 349 351 352 354 355 358 359 358 357
313 314 315 316 316 318 322 323 324 327 328 326 325 327 332 338 338 338 340 341 340 341 341 340 343 345 347 347 347 346 345 347 349 349 347 346 346 345 346 347 346 346 348 350 350 352 351 344 342 343 340 341 344 347 348 347 349 351 350 347 344 343 343 343 343 342 343 342 343 343 344 345 346 346 347 349 349 350 352 354 356 356 356 357 360 360 359
313 313 314 314 315 318 320 320 320 323 323 321 325 332 337 338 338 339 340 340 339 339 339 339 341 343 344 344 344 345 345 346 347 347 345 345 344 345 346 350 351 351 354 354 352 350 347 345 345 343 340 341 345 347 348 347 345 349 353 351 345 342 343 342 343 343 343 343 345 345 346 346 347 347 349 350 351 351 353 356 358 356 355 358 360 359 359
314 314 314 313 314 319 323 322 321 322 323 325 332 337 338 338 339 339 339 340 339 337 337 338 339 340 342 342 342 343 343 344 345 344 343 342 342 344 347 350 352 353 354 354 353 350 347 347 347 346 344 343 343 347 348 348 347 351 355 353 348 345 343 343 344 345 345 345 345 345 346 347 348 348 349 350 351 352 353 357 359 358 357 359 360 359 359
315 314 314 316 317 321 323 323 324 327 330 333 335 335 334 337 338 338 339 340 338 337 337 338 338 340 341 342 341 342 342 342 343 344 344 343 343 345 346 348 350 351 352 353 353 351 348 347 347 348 350 347 345 350 353 350 350 355 357 354 349 346 345 345 346 346 348 348 347 347 348 348 349 349 349 349 352 353 353 356 360 362 361 360 361 360 360
315 315 316 317 319 320 320 321 326 328 330 332 334 334 335 337 337 338 340 339 337 337 337 338 339 340 340 340 341 341 340 341 342 343 344 344 345 345 345 345 346 348 350 352 354 353 350 347 345 348 352 350 347 349 350 347 346 349 350 349 348 347 346 346 347 348 349 349 348 348 349 349 350 350 350 351 352 352 354 358 360 362 362 361 362 362 360
315 316 316 316 318 318 318 320 324 325 325 328 331 333 334 335 336 336 338 338 337 337 337 337 339 339 338 339 340 340 340 341 341 342 343 344 344 345 346 346 346 347 348 350 352 353 353 351 348 347 349 349 348 346 346 346 346 346 346 347 347 346 347 348 347 349 351 352 352 351 350 352 353 351 351 353 354 353 357 360 360 361 361 362 361 361 361
314 315 316 316 317 318 319 319 321 322 322 324 327 330 331 333 334 336 336 337 337 337 337 337 337 337 337 338 339 339 340 341 341 342 343 343 344 344 345 345 346 347 348 348 349 351 352 352 353 351 349 349 348 347 348 348 347 347 347 347 347 347 349 351 352 353 354 357 359 359 358 357 358 358 357 357 358 359 360 361 360 360 361 361 360 361 361
313 314 315 315 316 316 317 317 317 319 321 322 325 327 329 331 332 334 335 336 337 337 337 337 337 337 337 337 338 339 339 340 341 342 342 343 344 344 344 345 346 346 347 347 348 349 350 351 352 352 353 352 351 352 352 352 353 355 354 354 355 353 352 354 356 356 357 359 360 361 362 362 362 362 361 361 361 362 362 362 362 362 361 361 361 361 360
312 313 314 315 315 315 316 316 318 320 322 322 324 325 327 329 332 333 334 335 336 336 337 336 336 337 336 337 338 339 339 340 341 342 343 343 343 344 344 345 345 346 346 346 347 348 349 349 349 349 348 349 350 351 352 352 354 357 358 360 362 362 360 359 359 359 359 359 358 359 361 362 361 362 362 362 363 363 363 363 362 362 360 361 361 361 361
311 312 314 315 316 316 317 319 320 321 320 320 322 324 325 327 329 331 332 334 335 335 335 334 335 336 337 338 338 338 339 340 340 341 342 342 343 343 344 344 345 346 346 346 346 348 348 348 348 347 346 346 347 348 349 350 352 354 355 357 359 360 360 360 360 359 360 361 360 359 359 359 360 360 360 361 361 361 362 362 362 362 362 361 359 359 359
312 313 314 315 315 315 316 317 318 318 318 319 321 322 323 325 328 330 332 333 334 334 333 333 334 336 338 338 339 339 339 339 340 341 342 342 343 343 343 344 346 346 345 345 346 347 348 348 347 347 346 346 346 346 348 349 350 351 352 353 353 352 351 353 353 353 356 359 360 360 360 360 360 360 360 359 359 358 359 359 359 360 361 359 359 358 358
312 313 313 313 314 314 315 315 316 317 318 319 320 320 321 324 327 329 330 331 332 332 333 332 334 336 338 338 339 339 339 339 340 341 342 342 342 343 343 343 344 345 345 346 346 346 347 347 347 346 346 346 346 345 345 346 345 344 344 345 344 342 342 342 343 345 348 351 353 355 356 357 357 358 358 359 358 358 358 358 357 357 358 358 358 358 357
313 312 312 313 313 314 314 315 316 317 317 318 319 320 322 324 327 328 328 328 329 329 331 332 333 335 338 339 339 339 339 339 339 340 341 341 341 342 342 343 343 344 344 345 345 346 347 346 345 345 346 346 345 345 345 345 345 342 339 337 337 337 338 338 338 339 342 343 345 347 348 349 349 350 351 352 352 352 353 353 353 353 354 355 356 357 357
311 311 312 312 312 313 314 315 315 316 317 318 319 321 322 324 326 327 326 325 325 326 327 328 331 334 336 338 339 339 338 338 339 339 340 340 341 341 342 341 341 342 343 343 344 345 345 345 344 345 346 346 346 345 345 346 345 344 342 340 337 337 340 341 340 338 339 339 338 339 340 340 340 342 343 343 343 342 341 340 339 339 341 343 345 348 349
311 311 311 312 312 313 314 315 316 316 316 317 319 322 324 325 327 329 328 325 323 324 324 325 329 332 334 335 337 338 337 337 338 338 339 339 340 340 340 340 341 341 341 342 343 343 344 344 344 345 346 345 345 345 345 345 346 345 344 344 342 339 339 340 339 336 335 334 332 331 332 332 333 334 334 333 333 332 331 331 330 330 331 331 332 333 335
312 312 312 312 313 313 314 315 316 317 318 318 320 322 325 327 328 329 329 326 323 322 324 326 328 330 333 334 335 336 337 338 337 338 338 338 339 339 339 339 340 340 340 341 341 341 342 343 343 344 344 344 343 344 344 344 345 344 343 345 345 343 340 340 338 335 333 332 331 330 330 330 329 329 329 329 328 329 328 328 329 329 329 329 330 329 330
314 313 313 313 313 314 314 315 316 317 319 321 322 324 327 328 328 328 328 327 324 322 324 327 329 330 331 332 332 333 335 336 336 337 337 337 338 338 339 339 338 339 339 339 340 340 340 341 342 342 342 342 342 344 343 342 340 339 338 340 340 339 337 338 339 338 335 332 332 332 330 329 329 328 328 328 328 328 329 328 328 328 329 329 329 328 328
315 315 315 315 315 314 315 316 316 317 320 324 325 326 328 328 328 328 327 326 325 323 323 327 330 331 330 330 331 331 332 333 334 335 336 336 336 337 337 337 337 338 338 338 339 339 339 340 340 341 341 341 341 342 342 341 339 336 337 338 338 336 334 335 340 341 339 335 333 332 330 330 329 328 330 331 330 329 330 329 327 329 329 328 328 328 328
316 316 316 316 316 316 317 318 318 319 322 325 326 327 328 327 327 328 327 326 325 326 326 327 328 329 330 330 330 330 330 331 332 333 334 334 335 335 336 336 336 336 336 337 337 337 338 338 339 339 339 340 340 339 339 341 341 340 340 340 340 339 337 335 338 341 341 339 337 335 332 333 332 330 331 332 332 331 333 332 329 328 328 328 327 327 327
317 317 316 316 316 317 318 320 321 322 324 325 326 327 328 327 326 327 328 327 325 327 329 329 327 327 329 330 329 329 330 330 330 331 332 333 333 334 334 334 334 335 335 335 335 335 336 337 337 337 337 338 339 339 339 340 341 342 342 341 341 341 341 340 340 340 341 340 340 339 336 336 336 334 333 332 331 332 334 333 329 328 328 327 327 327 327
319 319 318 318 318 319 321 322 323 323 324 325 325 326 327 326 325 326 327 327 326 326 329 329 327 328 329 328 328 328 328 327 328 329 330 331 332 332 332 332 333 333 333 334 334 334 334 334 335 336 336 336 337 337 338 339 340 341 341 341 342 342 341 341 340 341 340 340 340 340 339 338 338 337 336 334 334 334 333 331 329 328 328 328 327 327 328
322 322 321 321 321 322 323 323 322 323 324 325 325 326 326 325 325 326 327 327 327 327 328 328 328 328 327 326 326 326 325 324 327 329 329 329 330 331 331 331 331 331 332 332 332 332 333 333 333 334 334 334 335 335 335 337 338 339 340 340 341 341 341 341 340 341 340 340 340 340 340 339 339 338 337 337 337 337 335 332 329 328 328 329 329 328 328
323 323 323 323 323 324 324 323 322 322 324 325 326 326 326 325 325 327 327 327 327 327 328 327 327 326 325 324 324 324 324 326 328 329 329 329 330 330 329 329 329 330 330 329 330 330 330 331 332 332 332 332 333 333 334 335 336 337 338 339 339 340 340 340 340 340 340 340 340 339 339 339 339 338 338 337 338 337 336 335 333 331 330 330 330 329 328
323 324 324 325 325 325 325 324 322 322 323 324 325 327 327 326 326 327 328 328 328 328 327 327 326 325 325 324 325 325 325 326 327 327 327 327 327 327 327 326 327 328 328 327 327 328 328 329 330 331 331 331 331 330 331 334 334 335 336 336 337 337 337 338 339 339 339 339 339 339 339 338 338 338 339 338 337 337 336 336 335 334 333 332 332 331 331
323 324 324 324 325 325 325 325 324 323 323 324 325 327 328 328 328 328 328 328 328 327 326 325 325 325 325 325 325 324 324 324 324 324 323 323 323 322 323 323 324 325 326 326 326 326 326 327 328 329 330 330 330 330 330 331 333 333 333 334 334 334 334 335 335 336 336 337 337 338 338 337 337 338 338 337 337 337 336 335 335 335 334 333 332 332 333
320 321 322 322 323 324 324 324 324 324 323 323 324 326 327 327 327 327 328 327 327 326 325 325 324 324 324 324 324 323 322 321 321 320 320 320 320 320 320 320 321 322 323 323 324 325 326 326 326 327 327 328 328 328 329 330 331 331 331 332 332 332 332 332 332 332 332 333 334 335 335 336 336 337 337 336 336 335 335 335 335 334 334 333 333 333 333
316 317 318 319 320 321 321 322 322 322 322 322 322 322 323 323 323 324 324 324 324 323 323 323 323 323 323 322 322 322 321 321 320 320 320 320 319 319 319 319 318 319 319 319 320 322 324 325 326 326 326 326 326 326 327 328 329 330 330 330 330 330 330 330 330 330 330 330 331 332 332 332 332 333 334 334 334 334 334 334 333 333 334 334 333 333 332
314 315 315 316 317 317 316 317 319 319 319 319 319 319 320 320 320 320 320 320 320 320 320 320 321 321 321 321 321 321 320 320 320 320 321 320 319 318 318 318 317 317 317 317 317 318 320 322 323 324 324 324 325 325 325 326 326 327 327 328 328 328 328 328 328 328 329 329 329 329 330 330 330 329 330 331 331 331 332 332 332 332 332 332 332 333 333
313 313 314 313 314 315 315 316 317 316 316 316 316 316 317 317 317 317 318 318 318 318 319 319 319 319 319 319 318 318 317 318 318 318 319 319 318 317 317 316 316 316 316 317 317 317 317 318 319 320 320 321 322 323 323 324 324 324 324 325 325 326 326 327 327 327 328 327 327 327 328 328 329 328 328 328 329 329 329 329 329 329 329 330 330 331 332
312 312 313 313 313 313 314 314 314 313 314 314 315 315 316 316 316 317 318 318 317 317 317 317 316 316 316 316 315 315 315 314 313 314 315 316 317 317 316 315 313 313 314 315 315 316 316 317 317 317 318 318 319 319 320 320 320 321 321 321 323 324 325 325 325 326 326 326 326 326 326 326 327 327 327 327 327 326 326 327 327 328 328 328 329 330 331
312 312 312 313 313 313 312 312 312 312 312 313 313 314 315 315 315 316 316 316 316 315 315 314 314 314 313 314 314 315 315 314 313 312 312 312 313 314 314 313 312 311 312 312 312 313 314 315 316 316 316 317 317 317 318 317 317 317 317 318 319 320 321 322 323 324 325 325 326 326 326 325 326 326 326 327 326 325 325 325 325 327 328 329 329 330 330
313 312 312 312 313 313 313 313 313 313 313 313 314 314 315 315 315 315 315 314 314 313 312 312 311 310 310 310 310 311 311 312 312 311 311 309 308 308 308 309 309 309 309 310 310 310 311 312 314 315 316 316 316 316 317 316 316 316 316 316 316 317 317 318 319 320 321 322 323 324 324 325 325 325 325 325 326 326 325 325 325 325 326 328 329 328 327
313 312 312 312 312 313 314 313 313 313 313 314 315 315 315 315 314 314 313 313 312 311 311 310 308 307 307 307 306 306 306 307 308 309 309 308 306 305 305 305 305 305 306 307 307 306 306 308 310 312 313 314 314 315 315 315 315 315 315 315 315 315 315 315 315 315 316 316 318 319 320 322 323 323 324 324 326 326 326 326 325 324 324 325 326 327 326
313 312 312 311 311 311 311 310 311 313 314 315 314 314 313 313 312 312 311 311 310 310 309 308 307 306 306 305 305 305 306 306 307 307 307 306 305 304 304 304 304 303 303 303 304 303 304 305 306 308 309 310 311 312 312 312 312 312 313 313 314 314 314 314 314 313 314 313 313 314 315 316 318 320 321 323 324 325 325 325 326 326 325 325 325 325 325
311 312 311 311 310 310 309 310 311 312 313 312 311 310 310 310 310 309 309 309 308 308 307 307 306 306 306 305 306 306 307 307 306 306 307 306 305 304 304 304 304 304 304 304 303 303 303 303 303 304 305 307 308 309 309 309 309 309 309 309 310 311 312 313 313 313 313 312 312 312 312 313 313 314 316 318 319 321 322 323 324 325 326 326 326 325 325
309 309 309 309 310 310 310 310 310 310 309 308 308 308 308 308 308 308 308 307 307 306 306 306 305 305 305 305 305 305 306 306 305 305 305 305 304 304 304 303 303 304 305 305 304 303 303 303 302 302 303 305 307 308 308 307 307 307 306 306 306 306 307 309 310 311 311 312 312 311 311 311 311 311 312 312 314 315 317 319 321 322 324 325 325 325 324
308 308 308 309 309 310 310 309 308 308 307 307 307 307 307 307 307 306 306 306 305 305 305 305 305 304 304 304 304 304 304 304 304 303 303 304 303 303 303 303 303 303 304 305 305 304 303 302 302 302 304 305 306 306 306 306 306 305 305 305 305 304 303 304 305 307 308 309 310 310 310 310 310 310 311 310 310 311 312 313 314 316 318 321 323 324 324
307 307 307 307 307 307 308 307 307 306 306 306 307 307 307 307 306 306 305 306 305 305 304 304 304 304 304 303 303 303 303 303 303 303 303 303 303 303 303 303 303 303 303 303 304 305 304 303 302 303 305 306 305 305 305 305 305 304 304 304 304 304 303 303 303 303 303 304 305 306 306 307 308 308 309 309 309 309 309 310 310 311 312 314 317 318 320
307 308 308 307 306 305 305 305 305 305 305 305 305 306 306 306 306 305 305 305 306 305 305 304 304 304 304 304 303 303 303 303 303 303 303 303 303 302 302 302 302 302 302 302 303 304 304 303 303 303 304 305 305 304 304 304 304 304 304 304 304 303 303 303 303 303 302 302 303 303 303 303 304 304 305 305 306 306 306 307 307 308 308 309 310 310 311
306 307 307 307 306 305 305 304 304 304 304 304 304 304 304 305 305 304 304 304 304 304 304 303 303 303 303 303 303 302 302 302 302 302 302 301 301 301 301 301 301 301 301 301 301 302 302 302 302 302 303 304 304 304 303 303 303 303 303 303 303 303 302 302 303 303 303 302 302 302 302 301 301 301 301 302 302 302 302 303 303 304 304 305 305 306 307
Wind_Speed
2 2 3 3 1 1 3 7 12 13 15 18 18 16 14 12 10 8 8 12 15 13 12 11 8 7 7 7 9 10 9 9 7 5 8 13 8 5 6 5 6 9 12 14 17 22 24 26 29 31 33 34 36 38 40 38 37 35 35 38 43 47 48 50 52 51 50 50 49 48 48 48 47 46 46 45 44 45 45 43 41 41 41 41 40 40 39
2 2 2 1 1 1 3 6 7 8 11 14 14 14 15 15 13 9 9 11 12 11 12 13 13 12 12 13 14 15 17 18 17 13 13 15 11 7 5 4 7 9 9 9 11 15 20 24 29 31 33 34 36 37 38 38 38 37 36 38 43 47 49 50 51 50 50 49 49 49 49 49 49 48 47 46 46 46 46 45 43 42 41 41 41 40 40
4 4 3 2 3 4 6 8 9 9 10 11 12 12 13 13 12 11 12 13 10 8 6 8 9 10 11 11 13 15 17 21 23 22 20 17 14 12 8 7 12 15 13 12 11 13 16 21 26 30 32 34 35 35 35 36 38 38 36 38 43 47 48 49 49 49 49 49 48 48 47 48 49 48 48 48 47 47 47 47 46 44 43 43 42 41 41
5 5 4 5 4 7 10 12 12 13 12 12 12 11 11 12 13 13 14 14 11 8 9 10 11 12 13 13 14 16 17 19 22 23 22 19 17 17 14 14 19 21 19 18 17 16 17 17 20 26 31 33 33 34 34 35 35 35 36 38 42 46 47 47 48 48 49 48 48 47 47 47 48 47 47 48 48 48 48 48 47 46 45 45 43 42 42
5 5 3 3 4 7 11 12 13 16 15 13 13 13 13 14 13 12 12 11 9 8 10 11 11 12 13 14 15 17 17 18 21 22 23 23 22 21 17 17 22 25 23 21 20 19 18 17 18 20 25 30 33 34 34 32 30 31 35 38 41 44 45 45 47 48 47 47 46 46 46 46 46 46 47 47 48 48 48 48 46 45 45 45 44 44 44
4 3 0 3 6 8 6 2 5 11 13 14 15 14 14 14 13 11 11 9 8 9 9 8 8 9 11 12 14 16 16 17 19 21 22 23 23 22 19 19 22 25 25 24 23 20 18 17 17 17 20 25 29 31 32 32 32 34 36 37 39 42 44 44 46 46 46 46 45 45 46 46 45 46 46 46 47 47 48 48 46 43 41 38 39 44 41
5 3 2 6 8 5 2 5 3 3 5 8 10 10 10 11 11 11 11 10 9 9 8 9 10 11 12 14 15 15 16 17 17 19 22 22 21 20 20 21 23 26 28 28 25 22 19 17 16 17 19 22 25 28 29 32 35 37 38 38 39 42 44 44 45 45 44 45 45 45 45 45 45 46 46 45 46 47 47 48 48 45 42 38 38 40 35
5 5 6 8 3 2 2 3 4 4 5 5 6 10 11 8 5 5 7 8 8 9 10 11 11 13 14 15 15 16 19 19 19 20 21 19 17 17 17 20 23 27 28 27 25 23 21 19 17 18 19 20 22 24 26 30 34 37 39 40 41 43 44 44 43 43 43 43 44 44 44 44 45 45 45 45 45 47 47 48 48 47 46 45 41 34 29
6 6 7 7 4 4 5 4 4 4 4 3 3 8 7 5 3 0 4 5 6 8 10 9 10 11 12 12 14 19 22 22 20 19 18 16 17 18 20 22 24 25 25 24 24 23 20 18 18 18 18 19 21 23 25 28 32 36 39 41 42 43 43 42 41 41 41 42 43 42 42 43 44 43 43 44 45 46 47 47 48 48 47 47 44 35 31
6 6 7 7 8 8 6 6 7 5 4 4 2 4 3 6 5 2 2 4 5 7 7 8 8 8 8 9 10 12 14 13 11 11 13 15 17 20 22 22 21 21 22 22 22 21 19 17 17 18 19 20 22 25 26 27 29 34 37 40 42 43 42 41 40 40 41 42 42 41 41 42 42 42 42 43 44 45 46 46 47 46 44 43 43 41 37
6 8 8 8 7 4 2 6 8 6 4 3 1 4 5 4 5 3 3 4 6 6 7 8 7 5 7 9 4 7 8 5 4 5 7 10 14 17 17 17 17 18 19 19 17 16 16 16 17 18 20 20 22 25 27 27 28 32 36 37 39 41 41 40 40 40 41 41 40 40 40 41 41 42 42 43 43 43 44 45 45 44 40 37 39 40 36
7 8 8 7 6 2 3 5 6 7 4 1 3 6 4 4 4 3 4 5 7 8 9 8 5 5 6 5 6 11 11 8 6 6 7 9 12 12 11 13 16 16 14 13 10 9 12 15 16 17 19 19 21 23 25 26 28 31 34 34 35 37 39 40 41 41 40 38 37 38 40 41 41 41 41 42 43 43 43 44 43 42 40 37 36 36 34
8 9 8 6 5 2 2 5 3 3 1 3 5 4 2 4 1 2 3 5 6 8 9 8 6 6 7 10 13 13 12 9 8 7 8 9 9 9 9 11 13 11 8 8 8 8 12 15 15 16 17 18 19 21 22 25 27 27 27 29 31 33 35 37 39 38 37 35 35 37 39 39 40 40 41 42 42 42 42 40 39 40 39 35 33 33 32
8 8 8 7 6 1 1 5 7 4 4 4 1 1 3 2 2 2 2 4 4 6 10 11 11 13 14 15 15 13 11 9 8 8 8 9 8 7 7 7 7 6 4 6 7 9 11 10 10 14 16 17 18 19 20 22 23 22 22 24 28 30 31 33 35 35 35 34 35 37 38 38 39 40 40 41 41 41 40 37 38 40 38 33 32 32 32
7 8 8 8 6 3 8 6 4 5 4 5 6 4 1 0 2 2 2 3 4 6 10 11 12 14 14 13 13 11 10 9 8 8 8 8 7 5 3 4 4 3 2 4 5 7 9 9 8 10 13 15 16 16 16 18 18 18 19 22 25 26 27 29 32 33 33 33 34 35 35 37 38 38 38 39 40 41 39 34 32 34 34 32 33 33 32
5 9 8 3 2 4 8 7 3 4 8 12 13 11 6 2 2 2 2 3 4 6 9 10 11 11 11 10 10 10 10 8 7 7 6 5 4 3 3 4 4 2 1 2 2 4 8 11 10 9 10 13 14 14 16 19 18 17 19 21 23 24 24 25 28 30 31 31 32 32 32 34 36 36 36 37 38 40 39 33 27 27 29 29 30 34 34
5 8 6 7 13 13 10 8 8 12 16 15 14 13 10 5 3 3 3 3 4 6 7 7 8 7 7 8 8 8 7 6 5 5 4 4 4 4 4 4 3 0 2 4 4 1 4 9 11 11 11 12 15 17 18 20 19 19 20 21 21 21 21 21 23 25 27 29 29 28 29 31 34 35 35 36 38 40 38 32 26 26 27 28 29 33 37
7 10 12 12 16 19 16 12 11 13 16 17 17 15 11 8 6 5 4 2 3 4 4 5 5 5 5 6 5 5 4 3 2 2 2 2 2 3 4 3 2 2 3 3 5 4 2 5 9 11 11 12 15 16 17 16 17 18 18 18 18 18 18 18 19 20 22 24 24 25 26 28 30 32 33 34 36 37 34 30 28 27 28 30 31 32 35
6 7 9 11 14 18 18 16 16 15 15 17 19 17 14 11 9 7 4 2 1 2 3 4 3 4 5 5 4 4 3 2 2 3 3 2 2 2 2 3 2 3 3 3 4 5 5 3 5 8 10 11 13 14 14 15 16 16 16 16 17 17 17 17 17 18 19 19 19 19 22 23 24 27 29 30 33 33 31 31 31 29 27 30 31 32 33
8 8 11 16 20 23 23 21 19 16 14 15 18 18 15 13 11 8 5 3 1 2 3 3 4 4 4 5 5 5 4 3 4 5 4 4 4 3 3 3 3 3 4 4 4 4 4 4 4 5 6 7 8 9 10 10 10 9 10 10 11 12 14 15 15 16 16 17 17 16 16 18 20 22 23 24 26 27 27 29 31 30 29 30 31 32 34
10 11 14 17 19 21 22 21 15 10 9 12 16 18 16 13 11 8 6 3 2 3 4 4 4 5 5 6 6 6 6 6 6 6 5 5 5 5 5 5 4 4 4 4 4 4 4 4 4 4 5 5 4 4 4 5 5 4 5 6 6 7 8 10 11 12 12 13 15 15 15 16 18 20 22 23 24 25 25 25 27 29 30 31 31 31 32
9 9 10 11 10 12 14 14 11 11 12 13 16 19 18 16 12 8 6 3 2 5 6 6 6 6 6 6 7 7 7 7 7 7 6 6 6 7 7 7 7 6 5 5 5 4 4 4 5 5 5 5 4 4 3 3 3 3 3 4 5 5 6 8 8 8 8 8 9 11 13 14 15 18 20 22 24 25 25 25 26 28 30 31 31 32 32
11 12 14 14 13 14 17 18 18 18 17 15 17 20 21 19 15 9 6 3 2 6 7 7 7 7 6 6 7 7 8 8 8 8 8 8 9 9 8 9 9 8 8 8 7 6 5 5 5 6 6 6 5 5 4 3 4 4 3 4 4 4 5 7 6 6 6 6 6 6 8 10 12 14 16 18 20 23 24 26 28 30 33 34 34 34 35
17 19 21 20 19 21 25 24 22 21 19 17 18 21 21 21 18 11 5 3 2 6 6 6 7 7 6 6 7 8 8 8 8 8 8 9 9 9 9 9 9 9 9 9 8 8 7 6 6 7 7 7 7 6 5 5 6 7 7 7 7 6 5 4 4 3 2 2 3 4 4 6 8 11 13 14 17 18 20 23 27 30 33 36 38 39 40
19 19 20 20 22 26 27 26 24 24 22 21 22 22 22 22 20 14 6 2 2 6 7 6 6 7 7 6 7 7 8 8 8 8 9 10 10 11 11 11 11 10 9 9 10 10 9 8 8 9 9 8 8 8 7 7 7 9 12 12 11 10 9 8 8 6 4 3 2 2 3 4 6 7 9 11 14 16 18 22 25 27 30 34 38 40 42
23 24 24 25 27 28 27 26 25 25 23 23 23 24 23 22 22 19 12 4 1 5 7 6 6 8 8 7 7 7 7 8 8 8 10 11 11 12 12 12 11 11 11 11 10 10 10 9 10 11 12 11 10 9 8 8 8 9 11 14 15 14 12 11 11 11 10 9 8 6 5 3 1 0 2 5 6 7 9 10 12 13 14 17 22 28 32
28 28 26 24 25 27 26 25 25 24 24 24 22 22 23 22 21 19 14 7 4 3 7 8 8 9 9 8 8 9 9 9 9 9 10 11 11 11 11 11 11 11 10 10 9 9 9 9 9 10 11 11 11 9 8 8 8 8 10 11 12 13 14 13 13 14 15 14 13 13 12 11 10 10 9 8 8 9 10 11 12 11 10 9 9 12 15
30 30 28 25 25 26 24 23 23 23 24 24 21 21 22 21 18 15 12 10 9 6 5 8 8 9 9 9 10 11 11 10 10 10 11 11 10 10 10 11 12 11 11 10 9 8 8 8 8 8 8 8 9 9 8 8 8 9 9 10 9 10 11 12 13 14 15 14 14 13 13 13 12 12 12 13 13 13 14 14 14 13 14 14 15 16 17
31 32 33 32 31 29 26 23 24 24 24 23 21 19 19 18 16 14 11 10 10 8 7 7 8 9 10 9 9 11 11 12 12 11 11 11 10 10 10 10 11 12 12 12 10 9 9 8 8 8 8 7 8 9 8 9 10 11 12 12 10 9 9 9 10 10 11 12 12 11 12 12 11 11 12 13 13 13 13 14 14 14 14 16 19 21 22
32 33 33 32 30 28 26 25 25 24 22 21 20 19 18 17 16 13 10 8 8 7 8 8 9 10 10 9 9 9 10 12 12 12 11 11 11 11 10 10 11 12 13 13 12 11 10 10 9 10 9 9 8 8 8 9 10 11 11 10 9 8 8 8 7 7 7 8 10 10 11 10 10 10 11 10 11 11 11 12 13 14 14 17 19 22 23
33 27 26 27 25 24 24 25 25 24 22 21 20 19 17 16 16 14 10 8 6 6 7 9 10 10 10 10 10 10 10 11 11 12 12 12 12 11 11 12 12 13 13 13 13 12 12 11 12 11 11 10 9 9 9 8 8 9 9 9 7 6 5 6 6 5 5 5 7 7 8 7 8 9 10 9 8 8 9 11 12 12 13 15 17 18 21
28 21 21 23 22 22 23 24 25 23 21 20 20 19 16 16 16 14 10 8 7 7 7 8 9 10 9 9 10 12 12 12 12 13 13 12 12 12 12 13 13 13 13 13 13 12 12 12 13 12 11 10 9 9 9 9 7 7 7 7 7 6 5 5 7 6 5 4 4 4 4 5 5 7 8 10 9 8 7 9 10 11 11 12 14 16 19
23 19 19 21 22 22 23 24 23 21 20 21 21 20 17 16 16 13 10 8 9 9 8 8 9 10 12 12 13 15 17 16 15 15 14 13 12 13 13 13 13 14 14 14 13 13 13 13 12 12 12 11 10 9 9 9 8 7 7 6 6 6 6 6 8 7 5 4 3 2 3 4 4 4 6 9 10 9 8 9 11 12 11 10 11 13 15
15 14 14 18 23 24 25 24 22 19 18 17 16 15 14 15 15 13 11 11 12 11 10 10 10 12 15 17 17 17 17 17 16 15 14 13 13 13 12 13 15 16 16 16 15 15 15 14 13 12 12 12 11 10 11 10 9 9 8 7 7 7 6 6 6 6 4 4 4 3 2 3 3 4 4 7 8 9 9 10 12 13 13 11 10 11 12
9 8 8 12 16 18 20 21 20 18 16 13 12 12 12 13 14 14 13 14 15 14 13 13 15 17 20 20 19 18 17 17 17 16 15 14 14 15 16 19 20 19 19 19 19 17 15 14 14 13 13 12 12 12 12 11 10 10 9 8 7 8 7 6 6 5 4 3 3 4 3 3 4 4 4 5 7 8 9 10 11 13 13 12 10 9 9
2 3 5 7 9 11 13 14 15 16 15 13 11 11 11 12 14 15 15 15 15 15 16 18 18 19 20 20 18 17 18 18 17 16 16 17 18 20 23 25 24 21 21 22 22 20 18 16 16 14 13 13 14 14 13 11 10 9 9 8 8 8 8 7 7 7 6 4 3 3 4 5 7 6 5 5 6 7 8 8 9 10 11 10 9 8 9
10 8 7 8 8 9 9 9 9 12 12 10 9 10 12 15 16 17 18 18 18 18 19 21 21 21 21 20 19 20 21 21 21 21 22 23 25 27 28 28 25 22 21 21 20 19 20 21 20 17 14 13 14 15 15 14 12 11 10 10 10 10 10 9 8 8 7 6 5 4 4 5 6 6 5 4 4 6 7 7 7 7 8 8 7 7 7
28 24 23 21 18 14 11 10 10 11 11 9 8 10 14 17 19 21 23 23 23 23 24 24 24 24 24 24 24 24 24 25 26 27 26 26 28 30 31 30 27 23 22 21 19 19 20 22 23 22 19 18 18 17 17 17 15 13 13 13 13 13 13 12 11 11 11 10 8 7 6 6 6 6 5 5 5 5 6 6 6 6 7 7 7 7 6
42 37 37 37 34 29 26 25 25 25 23 22 24 26 26 26 27 29 29 27 27 29 29 29 29 30 30 29 29 29 28 28 29 28 25 25 29 32 32 30 28 27 25 24 23 22 21 21 22 22 21 21 21 20 20 20 18 16 15 16 15 15 14 14 14 14 14 13 11 11 11 11 10 8 6 6 5 5 6 7 7 7 6 6 6 6 6
46 43 46 47 45 42 42 43 43 41 38 37 39 39 37 38 40 42 38 34 33 34 34 33 32 32 31 30 30 29 28 27 28 27 25 26 30 32 32 31 30 28 26 25 25 25 23 22 22 22 21 19 19 19 20 22 21 20 19 19 18 17 16 15 15 14 14 13 13 13 13 13 13 12 10 8 7 6 6 6 6 5 5 5 5 5 6
47 47 50 51 48 45 46 48 49 47 44 43 42 40 40 41 44 43 40 36 36 36 36 36 35 34 32 31 32 32 30 29 28 27 26 26 27 28 29 30 29 28 26 25 26 26 25 23 23 22 21 20 19 18 19 20 21 21 21 21 20 20 19 18 16 15 14 14 14 14 14 14 14 13 11 10 9 9 8 7 6 5 5 5 5 4 5
43 45 47 47 46 43 44 46 47 46 45 43 39 38 39 41 40 38 37 36 37 38 38 38 38 37 36 35 35 34 32 31 31 31 30 28 26 24 24 25 27 27 26 25 25 26 25 24 23 22 21 20 19 18 18 20 21 22 22 22 22 21 21 20 19 17 16 15 15 15 14 15 15 15 14 13 13 12 11 10 9 8 6 6 6 5 5
36 37 38 39 38 37 37 39 40 40 40 38 35 35 36 37 35 34 33 34 36 37 37 36 35 34 33 33 32 29 27 26 26 27 29 29 28 25 23 24 24 25 24 24 25 25 24 23 23 22 21 20 18 18 18 20 22 23 24 24 23 22 21 21 20 18 17 17 16 15 15 15 15 16 16 16 16 16 16 15 14 12 11 11 11 11 11
29 30 30 31 32 32 32 31 32 33 35 34 33 32 32 33 33 32 32 33 34 34 35 35 34 32 31 31 31 30 27 25 23 23 25 27 28 27 25 24 24 24 23 24 24 24 23 21 21 20 20 19 18 18 19 21 23 24 25 25 25 24 23 22 21 20 19 18 18 17 16 15 14 14 15 15 14 14 15 16 16 16 16 14 13 14 14
27 27 26 27 29 29 29 28 29 30 31 32 32 32 32 33 32 32 31 32 32 32 32 32 33 33 31 31 31 30 30 28 26 25 25 26 27 26 25 24 24 24 23 24 24 24 22 20 18 18 19 20 20 20 21 22 23 24 25 25 26 26 25 24 23 22 21 20 20 19 18 17 15 15 15 15 13 12 12 13 13 13 14 13 13 13 15
25 25 25 26 27 27 26 26 28 29 29 30 31 32 31 31 30 30 30 31 31 30 30 29 29 29 29 28 28 28 27 27 26 25 24 24 24 23 22 23 24 24 23 24 25 24 22 20 19 19 20 22 22 22 23 23 24 24 25 25 25 25 25 25 24 23 23 23 22 22 21 20 19 18 17 16 14 13 12 11 10 10 10 10 11 11 13
24 24 25 25 25 25 25 26 28 29 29 29 30 29 29 29 29 29 28 28 28 28 28 27 26 25 24 24 24 24 22 21 22 23 21 20 20 20 20 21 22 22 22 23 23 23 22 21 20 20 22 23 24 24 23 23 23 24 24 24 24 24 24 24 24 23 23 23 22 22 22 22 21 21 20 19 17 16 15 14 13 12 11 10 9 9 10
25 24 24 24 24 25 25 26 27 28 27 26 26 25 25 26 26 26 25 25 25 25 25 24 24 23 22 21 21 21 19 19 20 20 19 17 17 17 17 17 18 18 19 19 20 20 20 20 21 22 23 24 24 23 23 23 23 23 23 24 24 24 24 23 23 22 22 22 22 22 22 22 22 22 22 21 21 20 19 17 16 16 14 12 10 9 9
24 23 23 22 23 23 23 24 24 23 21 21 21 20 21 22 23 24 24 24 23 23 23 22 21 20 19 19 19 19 18 18 18 17 16 14 14 14 15 15 15 16 16 17 17 18 18 19 20 22 23 23 23 23 22 22 23 23 23 23 23 23 24 24 23 22 22 22 21 22 22 22 22 22 22 22 22 22 22 21 20 18 16 13 11 10 9
22 22 22 21 20 19 19 20 19 18 18 18 18 17 16 18 20 21 20 20 19 20 20 20 19 19 18 17 17 16 16 15 15 13 13 12 13 13 13 13 13 14 14 15 15 16 17 17 18 20 21 22 21 22 22 22 22 22 22 22 21 22 23 23 22 22 22 22 22 21 21 22 21 22 22 22 22 23 23 23 22 21 19 17 15 13 11
19 19 19 18 18 18 18 17 17 16 16 17 17 17 16 17 18 18 18 17 17 16 16 17 17 17 16 15 14 14 13 13 12 12 11 11 11 11 11 12 12 12 13 13 14 15 16 16 16 17 19 19 20 21 21 21 20 20 20 20 20 21 21 21 21 21 22 23 22 22 22 22 21 21 21 21 22 22 22 22 23 23 22 21 21 19 18
17 17 16 15 16 17 17 17 17 16 15 15 15 15 16 16 16 16 17 17 16 15 15 15 15 15 14 13 13 12 12 12 12 11 11 10 11 11 11 12 12 13 13 14 14 15 15 15 16 16 17 18 18 19 19 19 19 18 19 19 19 19 20 20 20 20 20 20 20 20 21 22 22 22 22 22 22 22 21 21 21 21 21 21 21 21 20
Wind_Direction
311 325 342 358 354 233 202 203 201 201 206 211 217 226 226 221 229 240 221 216 227 231 227 234 244 252 261 266 271 282 294 299 305 318 323 317 299 228 210 237 253 250 246 244 241 240 237 228 220 218 218 219 218 219 220 216 211 209 206 209 218 223 226 231 236 238 238 238 239 239 239 239 240 239 239 238 237 235 236 239 239 239 239 239 239 237 235
244 236 286 320 293 247 231 226 215 209 211 217 226 232 233 236 242 248 248 240 237 238 248 259 262 261 267 270 272 279 284 288 296 302 303 305 297 264 238 271 308 302 281 270 263 254 245 234 226 221 219 220 220 219 219 218 214 210 206 211 220 225 228 232 235 236 237 239 240 240 240 240 240 240 240 240 239 237 237 239 240 239 240 240 239 238 237
218 206 207 219 256 268 255 241 231 225 222 221 225 228 230 239 244 245 253 258 251 243 256 277 282 284 288 283 278 281 284 289 293 293 291 290 279 270 274 300 313 308 292 284 285 277 264 248 234 227 225 225 224 219 216 217 217 213 207 210 220 227 229 232 233 235 238 240 241 241 241 240 240 240 240 240 240 240 239 239 241 241 241 240 240 240 239
206 177 188 219 252 271 261 246 233 227 223 220 222 221 222 229 234 239 246 251 250 249 257 264 267 272 275 272 274 277 279 281 284 285 286 280 270 274 287 298 301 299 289 282 283 283 278 263 246 238 232 228 225 220 216 215 214 212 208 212 222 228 230 231 232 235 238 240 241 241 242 241 241 241 241 240 241 241 241 240 241 242 242 242 242 241 241
198 153 177 248 259 254 249 241 229 223 220 222 224 222 222 224 225 232 239 245 252 252 253 255 254 255 258 259 263 267 269 271 273 276 279 279 278 284 292 295 293 289 282 279 281 281 276 267 259 251 239 232 231 228 220 211 208 208 208 212 222 228 229 230 233 237 238 239 241 241 242 241 241 241 241 242 242 242 242 242 241 242 243 243 243 243 242
218 163 155 264 237 230 230 210 213 216 216 221 224 223 222 219 220 233 245 253 259 251 244 249 257 261 265 267 268 267 266 268 270 272 275 279 283 286 287 287 287 283 279 278 278 276 272 266 259 253 246 240 237 231 222 213 211 211 210 211 219 227 230 231 234 237 238 240 241 241 241 241 240 241 243 243 243 243 243 243 242 241 241 239 241 243 241
250 264 249 228 223 214 125 77 85 186 208 218 225 234 239 234 234 242 250 253 257 258 261 266 272 276 279 280 278 273 270 271 273 274 274 275 278 280 280 280 279 277 277 277 276 274 271 267 259 250 246 240 232 226 221 217 217 217 214 213 217 225 231 233 235 237 239 241 241 240 240 241 241 242 244 245 245 244 243 243 244 243 241 239 240 242 237
252 256 226 217 211 64 98 131 115 140 166 176 213 234 235 234 241 255 260 264 270 279 282 281 283 288 291 287 280 273 271 270 266 268 273 274 274 274 272 271 271 271 273 273 274 273 272 270 263 252 243 232 222 218 216 214 216 219 219 217 218 224 230 234 235 236 238 240 240 240 240 241 241 242 244 245 245 244 243 243 244 245 244 243 242 237 230
237 241 234 235 276 298 240 187 121 121 144 134 233 239 211 164 115 123 264 273 286 289 289 294 298 300 296 285 272 267 266 261 256 260 265 265 265 266 266 267 269 271 273 272 273 276 277 273 264 249 236 226 218 212 209 210 214 219 222 223 224 227 231 234 236 237 238 239 240 239 239 240 242 243 244 244 244 244 244 243 242 243 244 245 242 236 232
230 241 244 240 249 260 233 169 126 105 92 70 1 273 199 134 102 63 273 278 292 292 299 313 318 310 285 263 265 274 272 260 250 256 259 258 260 263 265 268 270 272 273 274 276 278 275 268 257 241 227 220 215 211 207 205 209 218 225 228 229 230 233 235 236 237 238 239 239 239 240 241 243 243 244 244 244 244 244 243 242 241 241 242 243 240 236
226 231 240 232 234 248 136 137 135 124 111 90 115 246 223 135 81 27 303 293 302 302 311 322 320 295 255 243 270 360 356 329 290 274 266 262 261 261 264 267 267 267 270 272 276 277 269 256 246 236 227 218 213 212 209 204 206 218 228 230 231 232 233 234 236 237 238 239 240 241 242 242 243 243 243 244 244 245 245 245 243 240 236 234 237 239 237
223 230 239 234 238 257 96 131 131 112 96 120 217 228 210 110 69 355 309 306 309 306 309 313 295 253 249 269 332 356 350 331 314 294 274 265 261 259 261 264 262 262 267 270 271 271 259 246 235 232 229 218 212 212 210 207 209 220 230 232 231 232 233 233 235 237 239 240 242 243 243 242 243 244 244 244 244 245 245 244 242 239 236 233 233 235 235
222 230 236 238 248 252 175 205 188 96 55 259 241 231 141 120 171 283 296 295 304 306 301 296 276 265 286 309 319 326 326 318 319 311 285 268 261 255 254 257 255 252 259 265 258 249 251 246 235 228 223 214 209 211 212 213 215 219 227 232 234 234 234 234 236 238 241 243 244 244 244 244 244 245 244 244 244 245 244 241 239 238 237 234 232 232 232
220 221 230 241 241 161 57 263 255 250 253 251 248 104 124 152 237 287 281 277 295 300 288 281 277 280 289 295 300 311 318 312 313 307 282 265 256 248 248 255 249 237 253 267 255 246 248 248 239 229 219 207 204 209 214 219 221 220 222 230 236 237 236 236 237 240 242 243 243 244 244 244 245 245 243 243 244 245 243 239 238 241 241 234 230 231 232
223 222 223 228 217 86 36 342 255 213 250 314 347 337 250 236 333 317 290 298 311 296 287 285 282 281 284 284 287 298 306 308 315 305 280 263 254 245 256 272 251 231 278 278 252 237 228 220 215 216 213 206 203 206 214 218 219 217 217 225 234 238 239 238 238 239 242 244 244 244 244 245 245 245 245 244 244 244 242 239 238 241 241 235 232 233 233
229 217 204 209 308 1 11 354 312 312 330 338 338 320 301 319 339 295 291 319 323 305 295 292 290 286 284 283 285 289 292 301 317 311 296 288 285 295 307 277 242 206 7 337 296 241 216 206 199 191 194 199 195 195 207 211 208 206 210 220 229 235 238 239 237 237 239 242 244 246 246 246 245 244 246 245 244 244 244 240 234 233 233 233 233 233 231
281 252 257 320 318 307 318 342 339 331 332 337 336 323 311 309 313 309 303 311 322 319 307 300 299 297 292 290 290 289 287 292 305 311 318 324 323 334 326 280 242 242 14 14 13 353 195 194 195 187 182 189 193 197 206 211 210 211 215 223 230 233 236 238 236 235 236 240 244 246 246 246 245 244 245 243 242 243 243 237 232 232 231 231 233 234 233
294 279 274 285 289 287 294 315 326 323 322 327 332 333 331 331 327 318 305 300 321 332 329 323 319 318 315 308 302 302 303 302 312 330 343 333 331 351 345 315 311 12 21 28 26 29 91 165 185 188 186 191 198 205 210 211 213 214 217 221 224 226 230 232 232 231 232 236 241 245 246 245 245 246 246 244 243 243 239 231 230 232 232 232 234 235 235
283 274 268 275 282 286 294 305 310 309 309 316 323 328 332 332 325 314 304 302 345 10 3 353 341 338 341 336 331 335 339 356 31 38 40 33 16 14 9 355 4 27 32 37 42 44 56 95 147 176 188 193 197 203 208 212 213 213 214 217 219 220 220 222 225 227 227 226 229 235 240 239 238 241 243 241 240 240 235 231 230 231 232 233 234 235 237
259 260 272 281 286 288 287 286 289 296 306 313 315 316 318 317 313 309 301 292 353 38 23 11 6 9 9 3 6 14 13 20 42 51 55 54 46 45 50 43 47 62 58 52 60 63 58 69 96 135 168 180 190 197 201 205 208 208 208 209 210 214 213 209 212 217 218 218 218 221 227 230 230 234 237 237 238 238 235 233 232 231 235 238 237 238 239
263 263 267 272 276 277 272 267 271 294 319 317 308 307 309 308 303 301 298 298 36 52 46 37 29 30 31 25 25 34 34 31 43 56 65 70 65 59 60 60 64 79 81 78 77 76 71 74 86 109 134 144 156 174 182 187 187 185 190 183 179 193 200 198 204 210 210 215 220 219 222 228 230 233 234 234 237 240 240 240 239 237 238 241 242 243 244
260 258 257 260 267 270 267 271 290 314 322 316 305 303 307 305 297 292 288 293 53 57 49 44 43 41 39 33 33 39 38 34 42 56 68 74 71 69 71 73 69 69 76 85 88 89 87 85 89 98 107 107 103 99 107 133 144 149 164 165 163 173 175 175 187 196 191 197 214 219 222 227 233 238 239 237 237 239 242 245 247 247 247 248 248 248 248
261 266 273 277 279 278 280 285 294 300 306 305 295 293 297 297 293 288 274 256 82 66 48 39 46 47 41 38 40 41 41 40 44 53 62 67 68 72 81 84 80 75 76 80 81 80 79 81 87 90 87 84 85 84 81 89 113 130 139 146 159 176 186 189 196 195 183 186 204 218 222 227 233 239 245 246 245 245 246 247 249 251 254 257 257 256 256
269 271 276 279 276 273 275 280 285 288 292 290 283 284 287 287 286 283 266 241 133 88 63 39 43 48 42 41 45 44 45 48 47 48 53 57 63 70 76 82 84 80 79 83 89 91 89 90 91 85 77 75 77 77 77 84 102 115 121 132 145 147 149 164 178 186 188 198 221 230 235 244 243 240 245 251 251 249 249 251 252 252 252 254 255 256 258
262 266 270 273 272 271 274 277 278 277 277 276 275 276 278 278 276 269 257 244 155 113 93 63 48 51 50 50 52 49 50 54 56 57 56 54 57 62 65 70 75 76 79 89 98 100 99 101 102 94 85 79 76 75 77 80 89 99 103 104 106 107 106 106 109 113 120 126 140 193 221 247 252 251 257 262 262 262 262 262 264 264 261 259 258 259 260
252 257 264 269 270 269 270 271 268 267 269 271 270 269 272 273 268 258 248 235 154 115 104 87 64 57 56 57 59 57 56 59 61 65 66 62 57 57 58 60 64 69 75 81 84 87 89 95 103 103 100 96 88 80 79 83 83 85 87 85 84 86 87 85 82 80 79 79 77 77 81 84 95 219 268 274 280 288 293 297 300 297 288 278 272 270 269
254 253 255 261 264 263 261 260 261 265 268 267 263 263 265 263 255 247 238 217 194 140 101 94 84 72 67 64 64 65 65 65 65 66 68 67 62 58 58 59 62 66 69 69 69 74 80 85 91 94 96 99 94 83 77 80 82 79 80 80 78 77 76 74 72 71 70 69 67 65 64 62 62 66 66 59 52 44 33 23 16 10 6 354 330 310 300
259 253 248 247 252 256 256 256 260 267 269 265 260 257 257 250 239 236 229 212 205 191 121 99 95 90 84 75 70 70 70 70 69 66 65 64 64 64 63 63 64 66 67 66 66 69 74 77 78 76 76 82 87 82 75 76 82 82 83 82 77 72 72 72 71 71 71 69 65 60 58 58 58 60 61 59 51 43 37 30 21 12 7 1 354 348 341
261 256 250 246 247 252 255 258 259 262 265 265 257 247 239 229 223 229 229 214 201 184 144 113 102 103 102 91 78 74 73 71 70 67 65 65 65 65 65 66 66 65 64 63 61 60 61 61 62 63 58 57 70 75 73 79 88 92 93 94 91 85 80 76 71 71 73 73 69 63 58 58 57 56 55 51 45 39 34 24 15 8 3 356 354 355 355
268 259 250 245 245 244 246 250 251 251 251 250 243 233 224 217 216 223 225 208 191 175 155 133 113 108 110 104 92 83 77 76 75 73 69 66 63 62 65 68 67 62 57 54 51 50 50 49 49 49 43 39 53 68 70 70 77 83 85 87 89 90 88 80 71 67 69 72 73 70 66 60 53 52 52 44 35 34 27 13 7 7 2 357 356 0 4
276 263 247 240 238 238 238 238 238 236 232 228 224 221 217 213 213 217 217 205 186 162 151 144 129 117 113 111 108 101 89 84 81 77 72 68 64 61 61 63 63 61 57 53 48 44 42 41 41 41 37 35 48 65 72 66 62 65 66 63 64 75 92 88 75 65 62 66 66 67 69 64 49 42 41 32 23 22 14 5 3 2 359 358 0 4 11
268 253 242 238 235 235 234 228 223 219 215 211 209 206 205 208 212 213 209 195 174 155 150 146 136 126 118 113 113 109 101 95 88 80 74 70 65 63 63 63 62 63 59 53 48 45 42 40 36 32 31 36 45 55 63 63 57 55 58 57 52 48 51 64 68 60 48 50 52 44 48 53 42 28 23 20 18 14 2 353 349 346 349 356 360 6 16
250 231 230 226 221 222 221 214 208 201 196 197 199 196 196 205 209 205 195 178 162 155 152 144 135 128 121 115 112 110 107 104 95 82 76 72 66 65 65 63 62 63 60 53 49 48 46 43 37 30 28 34 41 49 57 59 57 55 54 55 53 45 41 56 70 63 43 38 46 31 18 19 10 1 3 8 10 5 352 340 331 327 332 344 353 1 12
234 226 222 209 205 208 207 201 196 189 185 190 195 193 196 203 202 196 186 170 158 158 158 147 136 131 125 120 116 113 109 104 93 81 76 73 69 68 69 68 65 66 64 58 53 48 44 42 40 35 29 31 40 52 59 62 65 65 59 50 47 46 41 46 57 56 46 35 24 6 358 355 337 325 340 356 357 352 344 336 325 318 317 322 335 351 4
218 230 220 196 193 196 193 189 186 182 180 188 194 193 197 200 194 188 182 170 161 161 157 141 130 127 122 117 113 109 104 98 90 83 80 77 74 77 81 78 70 64 60 56 52 49 48 49 46 39 31 31 39 50 56 59 62 64 58 49 46 47 47 49 51 48 46 43 18 353 343 338 319 305 316 339 343 342 340 335 327 322 319 319 324 336 349
198 209 185 170 169 172 173 175 178 179 182 190 193 189 188 187 181 177 173 165 158 156 146 132 124 119 112 106 102 100 96 92 86 83 82 82 83 85 84 77 69 61 58 57 55 53 57 62 60 50 39 36 40 47 53 52 49 49 48 46 48 48 50 57 59 47 38 37 26 2 347 340 332 324 323 329 334 336 336 332 326 322 320 319 323 333 342
73 82 92 97 110 129 143 156 171 177 179 185 193 192 186 181 176 170 162 153 147 144 135 126 120 115 108 101 95 92 90 89 88 87 86 86 88 88 83 75 68 61 54 52 55 59 63 66 65 60 51 42 41 49 58 60 53 47 46 48 49 47 46 48 49 45 41 39 31 16 356 341 337 339 339 333 333 337 335 331 327 323 320 320 323 328 336
68 73 74 75 81 95 116 133 144 146 143 138 135 142 149 151 151 151 148 141 135 133 129 123 118 113 106 99 93 87 85 86 87 87 85 83 82 82 78 71 66 61 53 51 56 64 66 66 66 64 61 55 50 53 64 69 63 53 49 50 51 50 48 47 45 43 42 40 33 22 10 357 349 347 343 337 342 348 343 335 331 327 321 321 325 326 327
63 68 72 75 77 81 87 94 101 106 104 95 90 95 100 102 106 113 117 115 114 116 117 115 111 106 100 95 91 86 83 83 82 81 80 77 77 78 77 73 71 70 66 63 62 63 63 66 67 66 65 64 61 61 66 71 68 61 57 56 55 54 53 51 48 44 41 39 36 32 26 19 13 6 354 344 346 353 351 347 346 342 329 316 314 317 316
57 60 67 72 73 72 73 77 84 90 89 82 79 83 87 87 88 92 93 91 92 96 97 95 95 94 92 91 90 86 83 82 79 76 75 74 74 76 76 74 73 73 70 67 64 61 60 62 65 64 64 65 65 65 67 69 67 65 64 62 60 57 55 52 49 45 41 38 36 34 30 26 22 17 12 8 7 8 5 357 345 336 325 315 305 296 292
57 59 65 69 69 67 67 72 77 81 83 81 79 81 84 85 86 89 90 90 90 92 91 88 86 85 84 85 86 86 85 83 79 75 72 69 68 68 68 68 69 69 68 66 64 61 58 58 60 62 63 63 63 65 68 69 68 67 67 67 65 63 62 59 54 47 41 37 35 34 33 32 29 25 23 22 17 13 12 9 1 350 343 338 328 307 294
65 66 69 71 71 70 71 72 73 75 77 79 80 82 84 86 88 92 94 94 93 93 93 91 90 89 87 84 82 79 77 75 74 73 71 68 64 62 61 62 65 67 66 64 62 60 58 58 59 60 61 62 63 64 67 69 68 66 65 65 65 64 64 63 60 54 47 42 39 36 35 35 34 34 37 41 39 33 28 24 23 28 31 29 29 33 26
71 73 74 76 78 79 79 79 81 82 83 82 82 83 85 88 90 92 92 92 90 89 89 88 88 89 88 86 82 77 71 67 66 67 68 68 67 65 63 62 62 62 62 61 59 58 57 57 59 60 60 61 62 63 65 66 66 64 62 62 62 61 61 61 59 57 53 48 45 42 40 39 38 37 39 43 47 49 49 45 42 47 53 57 61 63 56
69 69 71 75 82 87 88 90 93 94 93 93 95 95 95 96 97 96 93 91 89 87 86 84 82 81 80 80 80 80 77 72 67 64 63 64 65 64 63 63 61 60 59 58 57 54 53 54 57 59 59 59 60 62 63 64 64 63 62 61 60 60 59 58 57 56 53 50 48 46 44 41 38 35 35 37 41 48 53 54 51 51 52 55 60 65 64
73 70 68 71 78 83 85 88 92 93 94 96 98 97 96 96 96 95 93 91 88 86 85 84 82 80 78 78 79 80 79 76 72 67 64 63 63 61 60 61 60 58 58 57 56 54 52 51 54 57 59 58 58 59 60 61 61 61 61 60 60 59 59 58 58 59 57 54 52 51 49 45 41 38 38 40 43 44 47 49 49 50 52 54 55 57 61
71 72 72 74 77 78 79 83 89 94 97 97 96 94 93 94 93 91 90 89 88 87 86 85 84 84 84 83 82 80 77 74 72 69 65 65 65 63 59 58 58 56 54 53 52 50 48 47 50 56 59 58 56 54 53 54 56 57 58 59 59 59 58 58 57 57 58 56 54 54 53 50 47 44 43 44 48 50 51 51 51 52 55 56 55 53 55
65 69 72 76 81 83 84 86 90 92 93 91 89 89 92 93 93 91 91 91 90 90 90 88 87 87 85 83 80 77 73 71 72 70 67 65 65 61 55 53 54 53 50 47 46 44 41 41 45 52 56 56 53 50 48 48 50 51 53 55 56 57 58 58 56 54 55 56 55 53 53 52 51 49 47 45 44 44 45 49 53 56 57 57 58 59 62
64 67 70 76 80 82 83 86 87 86 84 84 85 88 92 95 95 95 94 93 92 90 89 88 86 84 81 77 75 73 71 70 71 70 67 64 64 60 54 49 48 49 49 45 41 37 35 34 37 43 48 49 48 46 45 46 48 48 49 50 51 52 55 57 56 53 52 53 53 51 52 53 53 52 50 48 46 43 40 40 42 46 49 52 54 55 57
59 62 66 71 73 75 78 80 80 78 78 80 81 82 85 91 93 92 90 89 88 87 87 86 84 81 78 74 71 70 69 69 71 71 66 60 57 55 52 46 41 40 42 41 36 31 28 27 31 37 42 43 43 44 44 44 46 47 48 47 48 49 52 54 55 55 54 53 51 51 52 54 55 55 54 52 51 49 46 43 41 40 41 46 52 55 53
54 54 55 58 61 66 71 74 74 73 73 75 72 69 72 79 82 80 77 76 75 77 80 80 78 75 73 71 70 68 67 65 65 64 59 52 47 45 43 40 35 32 33 35 33 28 24 24 29 36 39 39 39 42 44 43 43 45 46 45 46 47 48 49 50 51 53 52 51 50 52 53 54 55 56 55 54 53 51 49 47 43 41 41 42 44 45
47 47 46 49 54 59 63 67 70 72 73 72 69 66 65 68 70 69 68 66 63 62 65 68 67 64 61 59 59 60 58 55 51 48 43 40 38 34 30 29 28 26 26 30 33 31 27 26 29 34 38 37 36 37 40 41 41 42 43 43 43 44 46 47 45 45 46 47 46 46 48 49 50 51 52 52 52 51 50 49 48 47 45 43 42 40 39
47 46 44 46 49 52 55 58 60 62 64 66 68 68 66 63 62 62 64 62 58 55 55 57 58 57 55 53 51 49 45 42 41 38 34 32 33 31 28 27 27 26 26 28 30 28 26 26 26 29 33 35 33 32 33 34 34 35 37 38 37 38 40 43 43 41 41 40 39 39 40 41 44 45 46 47 46 45 44 44 43 43 42 42 42 40 39